EHI
1 1 0 0 0 0 0 0 0 0 0 0 0 0 0 0 0 0 0 0 0 0 0 0 1 4 5 4 3 3 3 2 1 0 0 0 0 0 0 0 0 0 0 0 0 0 0 0 0
1 0 0 0 0 0 0 0 0 0 0 0 0 0 0 0 0 0 0 0 0 0 0 1 2 4 4 4 3 3 3 2 1 0 0 0 0 0 0 0 0 0 0 0 0 0 0 0 1
0 0 0 0 0 0 0 0 0 0 0 0 0 0 0 0 0 0 1 1 1 0 0 2 4 5 5 4 3 2 1 1 0 0 0 0 0 0 0 0 0 0 0 0 0 0 0 1 2
0 0 0 0 0 0 0 0 0 0 0 0 0 0 0 0 0 1 2 2 1 1 1 2 4 5 5 5 3 1 1 0 0 1 1 0 0 0 0 0 0 0 0 0 0 0 0 1 2
0 0 0 0 0 0 0 0 0 0 0 0 0 0 0 0 1 2 3 2 1 1 2 2 3 4 4 4 3 2 2 1 0 1 1 0 0 0 0 0 0 0 0 0 0 0 0 1 1
0 0 0 0 0 0 0 0 0 0 0 0 0 0 0 0 2 3 3 2 2 2 3 2 1 2 1 2 2 2 2 1 0 1 1 0 0 0 0 0 0 0 1 1 1 0 0 0 0
0 0 0 0 0 0 0 0 0 0 0 0 0 0 0 0 1 3 3 3 3 3 3 1 0 0 0 0 1 1 1 0 1 2 2 1 0 0 0 0 0 1 2 2 2 1 0 0 0
0 0 0 0 0 0 0 0 0 0 0 0 0 0 0 0 1 3 3 3 3 3 2 1 0 0 0 0 0 0 0 0 1 2 2 1 0 0 0 0 0 1 2 2 2 1 0 0 0
0 0 0 0 0 0 0 0 0 0 0 0 0 0 0 1 2 3 3 3 3 3 2 1 0 0 0 0 0 0 0 0 0 1 1 0 0 0 0 0 0 0 1 1 1 0 0 0 0
0 0 0 0 0 0 0 0 0 0 0 0 0 0 1 2 3 3 3 3 3 3 2 1 0 0 0 0 0 0 0 0 0 0 0 0 0 0 0 0 0 0 1 0 0 0 0 0 0
0 0 0 0 0 0 0 0 0 0 0 0 0 1 2 3 3 3 3 3 3 3 3 1 0 0 0 0 0 0 0 0 0 0 0 0 0 0 0 0 0 0 0 0 0 0 0 0 0
0 0 0 0 0 0 0 0 0 0 0 0 0 2 3 4 4 4 3 2 2 3 3 2 1 0 0 0 0 0 0 0 0 0 0 0 0 0 0 0 0 0 0 0 0 0 0 0 0
0 0 0 0 0 0 0 0 0 0 0 0 0 2 4 5 6 5 4 3 2 3 3 3 1 0 0 0 0 0 0 0 0 0 0 0 0 0 0 0 0 0 0 0 0 0 0 0 0
0 0 0 0 0 0 0 0 0 0 0 0 0 1 3 5 6 6 6 5 3 3 3 3 2 1 0 0 0 0 0 0 0 0 0 0 0 0 0 0 0 0 0 0 0 0 0 0 0
0 0 0 0 0 0 0 0 0 0 0 0 0 0 1 4 6 6 6 6 4 3 3 3 2 1 0 0 0 0 0 0 0 0 0 0 0 0 0 0 0 0 0 0 0 0 0 0 0
0 0 0 0 0 0 0 0 0 0 0 0 0 0 1 2 5 6 6 6 5 4 3 3 3 1 0 0 0 0 0 0 0 0 0 0 0 0 0 0 0 0 0 0 0 0 0 0 0
0 0 0 0 0 0 0 0 0 1 1 0 0 0 0 1 2 5 6 6 6 5 4 3 2 1 0 0 0 0 0 0 0 0 0 0 0 0 0 0 0 0 0 0 0 0 0 0 0
0 0 0 0 0 0 0 0 0 1 2 1 1 1 1 0 1 4 6 6 6 6 4 3 2 1 0 0 0 0 0 0 0 0 0 0 0 0 0 0 0 0 0 0 0 0 0 0 0
0 0 0 0 0 0 0 0 0 1 2 1 2 2 1 0 1 3 6 6 6 6 5 4 3 1 0 0 0 0 0 0 0 0 0 0 0 0 0 0 0 0 0 0 0 0 0 0 0
0 0 0 0 0 0 0 0 0 1 1 1 1 1 1 1 2 4 6 6 6 6 6 6 4 1 0 0 0 0 0 0 0 0 0 0 0 0 0 0 0 0 0 0 0 0 0 0 0
0 0 0 0 0 0 0 0 0 1 1 1 0 1 1 3 6 6 6 7 7 6 6 6 4 1 0 0 0 0 0 0 0 0 0 0 0 0 0 0 0 0 0 0 0 0 0 0 0
0 0 0 0 0 0 0 0 0 1 1 1 0 1 2 5 7 7 6 7 6 6 6 6 4 1 0 0 0 0 0 0 0 0 0 0 0 0 0 0 0 0 0 0 0 0 0 0 0
0 0 0 0 0 0 0 0 0 0 1 1 1 1 2 5 7 6 5 5 5 4 5 6 5 3 1 0 0 0 0 0 0 0 0 0 0 0 0 0 0 0 0 0 0 0 0 0 0
0 0 0 0 0 0 0 0 0 0 0 1 2 1 2 4 6 4 3 3 3 3 4 5 5 3 1 0 0 0 0 0 0 0 0 0 0 0 0 0 0 0 0 0 0 0 0 0 0
0 0 0 0 0 0 0 0 0 0 0 1 2 2 2 4 5 4 2 2 3 3 3 4 5 4 2 1 0 0 0 0 0 0 0 0 0 0 0 0 0 0 0 0 0 0 0 0 0
0 0 0 0 0 0 0 0 0 0 0 0 1 2 3 4 5 4 2 2 3 4 4 4 4 3 3 1 0 0 0 0 0 0 0 0 0 0 0 0 0 0 0 0 0 0 0 0 0
0 0 0 0 0 0 0 0 0 0 0 0 1 2 3 3 4 3 2 2 4 6 6 4 3 3 3 2 1 0 0 0 0 0 0 0 0 0 0 0 0 0 0 0 0 0 0 0 0
0 0 0 0 0 0 0 0 0 0 0 0 1 2 3 3 3 2 2 2 4 6 7 6 4 3 3 3 2 0 0 0 0 0 0 0 0 0 0 0 0 0 0 0 0 0 0 0 0
0 0 0 0 0 0 0 0 0 0 0 0 1 2 3 3 2 2 3 3 4 5 6 6 4 3 3 2 1 0 0 0 0 0 0 0 0 0 0 0 0 0 0 0 0 0 0 0 0
0 0 0 0 0 0 0 0 0 0 0 0 1 2 3 3 2 3 6 6 4 4 5 5 4 3 3 1 0 0 0 0 0 0 0 0 0 0 0 0 0 0 0 0 0 0 0 0 0
Wind_Speed
1 1 2 3 6 6 4 2 1 3 4 4 8 9 8 6 4 5 1 5 6 4 3 6 9 10 10 10 10 11 11 11 11 12 12 11 11 11 11 11 11 11 10 10 9 9 9 9 9
1 1 3 5 5 4 2 1 3 3 5 5 7 8 7 6 4 5 3 5 6 5 4 6 10 10 10 10 10 10 10 10 11 11 11 11 11 11 10 10 11 11 10 10 9 9 9 9 10
1 1 4 4 4 3 2 1 3 4 5 4 5 6 5 4 3 3 5 7 6 5 4 6 10 9 9 9 10 9 9 10 10 11 10 10 10 10 10 10 11 10 10 10 9 9 9 9 10
2 4 5 6 5 1 3 3 3 5 6 6 6 6 4 2 2 4 7 8 7 4 4 6 10 9 9 9 9 8 8 9 10 10 10 10 10 9 9 10 10 10 9 9 9 9 9 9 9
4 4 6 4 2 1 1 2 4 5 4 6 7 6 3 3 5 7 8 7 7 4 3 5 9 9 8 8 8 7 7 8 9 9 9 8 9 9 9 9 9 9 8 8 8 8 9 9 9
4 4 5 3 2 2 1 3 6 8 7 6 7 5 2 2 5 5 6 6 6 6 4 4 8 8 7 7 7 6 6 6 7 7 7 7 7 8 7 7 7 7 8 7 7 7 8 9 10
4 4 3 3 3 2 2 3 5 5 5 4 5 5 3 1 3 4 5 6 5 5 4 2 2 3 6 6 5 5 4 4 5 6 6 5 5 6 6 6 7 7 6 6 6 6 7 8 10
5 5 3 2 3 2 2 3 5 6 4 3 5 7 5 4 4 5 5 4 4 4 3 3 2 1 1 2 3 4 3 2 2 3 4 4 4 4 5 5 5 6 6 5 5 5 7 9 10
4 5 2 2 4 3 3 5 3 4 6 4 4 4 6 7 6 6 4 3 3 3 2 2 2 2 2 1 2 2 2 2 2 2 2 2 1 1 2 3 4 4 5 5 5 5 6 8 9
5 4 2 3 4 5 4 4 4 4 6 5 6 6 8 8 7 6 5 4 3 3 2 2 3 2 2 1 1 1 1 2 2 1 1 1 1 0 2 2 3 4 4 5 4 4 5 5 4
3 4 2 2 4 5 4 3 3 7 3 5 9 10 8 8 7 6 5 5 4 3 3 3 3 2 2 1 1 1 1 1 2 2 2 2 2 2 2 1 2 3 4 3 4 4 3 3 3
4 2 3 3 4 4 4 3 4 4 5 7 11 11 9 8 7 7 6 5 4 3 3 3 3 3 2 2 2 2 1 1 2 2 3 3 2 2 1 1 1 2 1 2 3 2 3 4 4
4 3 3 4 4 4 6 5 5 3 6 9 9 9 8 7 6 6 6 6 5 3 2 2 4 4 3 3 2 3 2 2 2 2 2 3 3 2 2 1 1 2 2 2 3 3 4 4 4
4 4 3 3 3 3 5 3 4 4 8 9 9 8 7 7 7 5 5 5 5 4 3 3 4 4 4 3 3 2 2 3 3 3 3 3 2 2 2 2 2 2 2 2 3 4 4 3 3
4 4 2 0 2 2 5 2 2 7 9 9 9 7 7 6 6 7 7 6 5 5 4 4 5 4 5 4 3 3 2 3 3 3 3 3 3 3 3 3 3 2 2 3 3 4 4 4 4
3 3 0 3 2 3 5 3 4 7 10 8 7 6 7 6 6 6 6 6 6 5 5 4 5 5 4 4 3 2 2 3 3 3 3 4 4 4 4 3 2 2 3 3 3 3 4 4 3
2 1 2 3 3 3 4 4 6 7 9 9 8 7 6 6 5 6 6 7 7 7 6 5 5 5 4 4 3 3 3 3 2 2 3 3 4 4 4 3 2 3 3 3 3 3 3 3 3
3 3 2 4 4 4 3 5 6 7 9 9 9 7 7 7 7 6 7 7 7 6 6 6 5 5 4 3 3 3 3 3 2 2 2 3 3 4 4 3 3 3 3 3 3 3 3 2 2
4 3 3 5 4 3 5 5 7 8 8 9 8 8 9 9 6 6 7 7 7 6 6 5 5 4 4 3 2 2 1 1 2 2 3 3 3 4 4 3 3 3 3 3 3 3 4 3 2
3 3 3 3 3 2 3 5 6 7 10 11 11 11 10 8 6 6 7 6 7 7 6 6 6 5 4 3 3 2 2 1 1 1 2 3 3 3 4 4 3 3 3 4 3 3 2 2 2
3 4 4 4 1 1 0 3 4 4 5 6 8 10 10 11 11 9 8 7 7 7 8 7 7 6 5 5 3 3 3 2 2 2 2 2 2 3 3 4 3 3 3 2 2 2 3 2 2
3 3 3 2 1 3 2 3 7 5 5 8 9 9 10 10 10 10 9 8 8 8 8 8 7 6 5 5 5 5 3 2 2 1 0 1 2 3 3 3 3 3 2 2 2 2 2 3 1
4 2 1 1 2 1 1 2 7 2 5 9 10 11 11 11 12 11 10 10 8 7 7 7 7 6 5 6 6 6 4 2 1 1 1 1 2 2 3 3 3 3 2 2 2 3 3 2 2
1 4 4 4 3 2 5 4 6 5 9 8 9 10 11 11 11 11 10 8 7 6 6 7 7 6 6 6 6 6 6 4 3 2 2 1 1 1 2 3 3 2 2 2 2 2 3 2 2
5 5 3 4 2 5 3 3 7 6 7 8 10 10 10 11 11 10 10 9 8 8 7 7 8 7 6 6 6 6 6 6 5 4 3 2 1 0 0 2 2 2 2 2 2 3 2 2 3
2 7 5 3 3 4 2 4 5 4 2 4 5 7 8 9 10 11 12 11 10 9 9 9 9 7 7 7 6 5 5 4 3 4 3 3 2 2 2 2 2 2 2 2 2 2 2 2 2
2 3 5 5 1 1 3 3 5 5 4 1 2 4 6 9 10 10 11 10 10 10 10 10 9 7 7 7 6 5 5 5 4 4 3 2 2 2 3 3 2 2 2 2 3 2 2 2 2
4 4 4 3 2 2 3 2 3 4 3 1 1 4 6 7 7 8 9 10 10 9 8 8 8 8 7 7 6 5 5 5 4 4 4 3 3 2 3 3 3 2 2 2 3 2 2 3 2
0 1 3 2 4 4 2 5 5 5 3 2 2 3 5 7 8 8 7 7 7 7 8 7 7 7 6 6 5 5 4 4 4 4 4 4 3 3 3 3 3 3 3 3 3 2 2 2 2
3 3 4 3 3 3 3 6 4 3 3 2 2 2 2 4 6 7 7 6 6 7 7 7 7 7 7 6 6 5 5 4 4 4 4 4 4 4 4 3 3 3 3 3 3 2 2 2 2
Wind_Direction
302 17 76 55 55 55 51 11 55 59 59 55 71 79 79 61 75 112 181 132 124 115 94 105 96 89 85 84 83 83 82 80 78 77 76 78 80 82 82 81 81 80 78 75 71 70 68 66 62
357 40 61 56 73 77 38 19 78 83 124 116 78 73 73 70 78 102 118 134 125 118 105 105 101 94 89 86 86 86 83 82 80 79 78 77 78 80 82 82 82 80 77 75 72 70 67 63 60
332 65 71 62 77 123 139 131 103 87 90 91 80 57 66 86 96 119 150 139 124 116 110 113 107 102 96 90 87 86 85 85 83 81 80 79 78 78 80 82 81 79 77 73 70 69 64 61 60
59 47 55 69 80 120 154 170 133 107 72 60 92 68 56 47 122 141 142 133 126 122 122 125 117 110 104 99 96 93 91 90 88 85 84 82 80 77 79 82 81 80 77 73 69 67 62 59 58
66 72 65 65 62 51 134 139 109 93 78 77 90 88 60 16 100 127 133 133 133 136 135 131 120 117 112 107 103 100 97 95 91 88 88 86 83 78 80 83 82 80 77 74 69 65 61 58 58
57 65 82 91 91 64 59 102 95 91 102 104 97 98 87 104 112 131 136 142 146 147 147 137 131 129 122 117 112 107 105 103 100 95 93 90 85 81 82 85 84 82 79 73 67 61 58 56 58
98 86 101 124 113 89 110 100 98 105 106 107 115 102 116 132 137 128 127 135 146 146 142 142 153 139 134 128 123 119 115 111 111 106 103 100 95 88 85 84 85 83 81 74 65 57 53 53 59
122 98 83 104 120 127 131 102 106 107 104 106 107 127 156 184 148 125 121 120 129 138 148 163 182 165 147 141 138 125 114 105 107 114 115 111 100 92 88 81 80 81 77 70 60 50 49 54 61
87 78 105 159 143 144 118 98 90 83 92 69 75 126 150 147 131 115 109 100 115 132 150 159 178 201 202 189 161 119 90 56 51 76 104 90 57 52 75 84 82 80 72 60 47 41 48 52 58
81 108 179 175 150 141 127 117 125 92 83 78 77 90 121 133 132 132 135 135 141 155 171 173 175 194 205 188 103 38 10 10 26 41 62 79 88 92 82 66 69 62 57 47 39 32 37 48 46
112 146 140 112 125 123 114 106 107 117 119 154 144 145 146 142 142 150 156 160 164 170 166 174 173 165 168 146 103 55 37 33 24 59 85 88 81 68 53 28 18 17 28 23 21 26 34 49 62
108 115 126 117 110 114 121 115 92 120 166 160 151 151 150 153 162 166 166 167 159 150 160 167 151 130 121 109 110 98 77 66 54 51 78 90 86 75 66 49 24 20 22 31 37 45 52 59 68
99 103 102 114 105 109 102 109 118 127 137 139 142 145 156 159 167 175 170 164 157 155 153 142 123 118 112 100 97 88 78 69 60 47 51 80 88 84 73 60 51 46 48 55 58 57 58 61 62
130 116 108 115 118 118 114 117 116 157 146 144 151 161 169 168 169 167 166 167 169 160 143 122 114 117 109 101 92 89 80 70 60 45 42 69 87 89 79 61 50 41 50 63 71 71 66 63 65
110 91 54 126 148 153 109 60 170 166 152 155 166 174 177 182 174 175 178 172 170 163 147 131 125 110 102 98 96 92 84 77 64 49 43 62 79 84 84 72 56 41 53 65 67 62 63 66 63
72 70 30 263 188 172 127 205 222 169 159 168 178 180 180 189 187 186 179 168 163 156 147 138 129 115 105 101 97 93 83 75 63 53 49 59 73 84 83 76 61 54 61 64 72 64 68 62 60
39 145 219 263 223 181 155 205 218 183 166 177 186 186 184 190 193 188 176 164 162 159 147 133 124 122 117 108 98 90 80 71 64 55 51 56 66 76 83 78 67 68 63 59 74 63 74 72 60
204 194 212 230 240 188 194 221 210 195 179 185 189 190 187 193 196 180 168 162 158 154 146 137 129 126 117 103 92 74 62 54 53 48 51 63 68 75 81 78 67 71 70 57 66 73 60 71 71
182 179 223 243 239 191 212 224 215 204 192 192 191 188 192 201 195 173 165 157 148 147 144 143 138 138 125 117 116 106 97 69 44 38 58 63 75 80 82 81 69 73 79 75 77 79 64 49 62
195 211 249 271 251 189 218 239 225 210 204 196 191 192 195 192 180 178 170 161 160 161 158 154 153 152 147 145 146 141 135 126 111 36 44 60 72 74 88 88 85 81 83 70 66 78 78 44 44
225 203 215 226 285 338 68 300 263 241 221 207 198 195 193 186 181 181 174 173 168 167 168 165 165 159 154 140 119 96 71 55 46 37 20 24 69 73 79 89 93 87 90 89 82 95 101 89 22
240 231 203 185 123 271 193 265 271 231 223 213 208 200 196 188 180 178 176 174 177 178 171 165 164 160 155 143 137 139 135 142 182 171 133 18 55 82 89 94 95 92 90 91 89 94 102 109 74
215 221 183 189 166 294 278 207 280 224 224 224 212 204 198 188 181 179 181 180 179 175 170 168 161 160 158 153 149 143 141 152 146 119 109 58 40 67 86 96 95 91 87 92 84 84 83 94 110
152 35 18 42 77 267 236 194 269 229 218 219 211 204 195 186 184 182 180 175 174 171 167 164 160 163 162 158 154 152 153 151 141 144 146 109 48 45 76 99 98 97 92 91 95 93 91 88 89
74 78 27 358 5 260 238 195 250 252 227 208 202 201 195 185 181 177 173 174 173 171 168 164 163 167 170 165 165 167 166 162 164 169 167 156 140 138 166 109 104 96 99 101 100 92 88 91 89
169 140 158 197 227 279 293 230 263 290 251 189 188 186 181 178 181 180 179 179 178 174 170 166 168 170 173 172 174 175 170 166 175 175 168 174 181 188 176 137 114 105 102 99 96 90 90 90 89
157 188 177 150 225 272 282 295 323 348 359 57 142 160 179 180 180 182 182 180 178 176 176 175 172 170 175 177 174 174 175 173 179 176 169 176 183 175 157 141 126 118 113 114 111 95 87 92 89
163 159 100 120 163 251 287 277 259 282 301 336 193 190 186 179 179 179 180 183 182 182 177 172 170 174 176 175 177 178 182 179 174 161 166 177 180 163 147 143 134 123 116 114 106 102 97 91 78
239 127 127 143 167 168 247 270 239 214 211 202 208 198 193 182 180 180 181 180 180 177 172 171 172 169 173 177 175 170 174 169 160 166 177 176 166 155 149 152 140 127 117 113 108 108 104 98 71
191 192 150 158 235 183 187 260 276 207 193 192 208 191 183 178 181 178 172 165 166 173 176 176 175 175 179 174 164 165 167 160 159 174 185 169 159 155 151 146 138 134 131 128 123 123 114 114 105